KC0AFB Weather Reports


time (UTC)temp
C
wind
direction
speed
KPH
gust
KPH
rain 1hr
cm
rain 24hr
cm
rain mn
cm
humidity
%
barometer
mb
20260901173341 24 146 3.2 3.2 0.00 0.00 0.00 51 1016.8
20260901172838 24 179 4.8 4.8 0.00 0.00 0.00 54 1016.9
20260901172337 25 197 4.8 4.8 0.00 0.00 0.00 52 1016.9
20260901171836 24 228 6.4 8.0 0.00 0.00 0.00 54 1016.8
20260901171335 25 77 0.0 1.6 0.00 0.00 0.00 50 1016.8
20260901170834 25 169 3.2 3.2 0.00 0.00 0.00 52 1016.9
20260901170328 24 149 3.2 3.2 0.00 0.00 0.00 55 1016.8
20260901165827 25 272 6.4 8.0 0.00 0.00 0.00 55 1017.0
20260901165322 24 136 1.6 3.2 0.00 0.00 0.00 52 1016.8
20260901164819 25 54 3.2 3.2 0.00 0.00 0.00 55 1016.7
20260901164314 24 104 1.6 3.2 0.00 0.00 0.00 54 1016.8
20260901163808 23 91 3.2 3.2 0.00 0.00 0.00 54 1016.8
20260901163303 23 99 3.2 3.2 0.00 0.00 0.00 57 1016.9
20260901162758 23 106 1.6 1.6 0.00 0.00 0.00 57 1017.0
20260901162257 23 161 4.8 8.0 0.00 0.00 0.00 55 1017.0
20260901161756 23 121 1.6 1.6 0.00 0.00 0.00 58 1016.9
20260901161250 23 45 1.6 1.6 0.00 0.00 0.00 56 1017.2
20260901160747 23 76 1.6 1.6 0.00 0.00 0.00 57 1017.0
20260901160243 22 135 1.6 1.6 0.00 0.00 0.00 56 1017.0
20260901155741 23 115 3.2 3.2 0.00 0.00 0.00 59 1016.8
20260901155236 23 94 0.0 0.0 0.00 0.00 0.00 59 1017.1
20260901154732 23 138 3.2 3.2 0.00 0.00 0.00 61 1016.8
20260901154226 23 74 0.0 0.0 0.00 0.00 0.00 58 1016.7
20260901153721 22 356 0.0 0.0 0.00 0.00 0.00 58 1017.0
20260901153220 22 106 1.6 1.6 0.00 0.00 0.00 65 1017.2
20260901152715 22 108 3.2 3.2 0.00 0.00 0.00 65 1016.8
20260901152213 21 155 3.2 3.2 0.00 0.00 0.00 64 1016.9
20260901151710 21 131 0.0 1.6 0.00 0.00 0.00 61 1016.8
20260901151209 22 125 3.2 3.2 0.00 0.00 0.00 61 1017.0
20260901150708 21 69 0.0 0.0 0.00 0.00 0.00 60 1017.0
20260901150206 21 86 0.0 0.0 0.00 0.00 0.00 63 1017.0
20260901145704 21 79 0.0 1.6 0.00 0.00 0.00 61 1016.8
20260901145159 20 71 0.0 0.0 0.00 0.00 0.00 64 1017.0
20260901144655 20 41 3.2 3.2 0.00 0.00 0.00 65 1017.1
20260901144149 19 318 1.6 3.2 0.00 0.00 0.00 65 1016.8
20260901143645 18 53 0.0 1.6 0.00 0.00 0.00 66 1017.1
20260901143141 18 65 0.0 0.0 0.00 0.00 0.00 68 1016.9
20260901142637 18 109 0.0 0.0 0.00 0.00 0.00 69 1017.2
20260901142136 17 171 0.0 0.0 0.00 0.00 0.00 68 1017.1
20260901141631 17 132 0.0 0.0 0.00 0.00 0.00 69 1017.2
20260901141131 18 200 8.0 9.7 0.00 0.00 0.00 70 1017.3
20260901140630 18 181 4.8 4.8 0.00 0.00 0.00 69 1017.4
20260901140129 18 59 0.0 1.6 0.00 0.00 0.00 67 1017.3
20260901135624 17 49 1.6 1.6 0.00 0.00 0.00 71 1017.0
20260901135119 16 35 1.6 1.6 0.00 0.00 0.00 71 1016.8
20260901134615 16 51 1.6 1.6 0.00 0.00 0.00 71 1016.8
20260901134110 16 65 0.0 0.0 0.00 0.00 0.00 71 1016.8
20260901133608 15 55 0.0 0.0 0.00 0.00 0.00 76 1017.0
20260901133108 15 36 0.0 0.0 0.00 0.00 0.00 73 1017.1
20260901132603 16 66 0.0 0.0 0.00 0.00 0.00 71 1017.2
20260901132102 16 65 0.0 0.0 0.00 0.00 0.00 71 1017.2
20260901131602 16 65 0.0 0.0 0.00 0.00 0.00 74 1017.1
20260901131057 15 65 0.0 0.0 0.00 0.00 0.00 76 1017.1
20260901130552 14 65 0.0 0.0 0.00 0.00 0.00 79 1017.1
20260901130050 13 64 0.0 0.0 0.00 0.00 0.00 79 1017.0
20260901125549 13 64 0.0 0.0 0.00 0.00 0.00 79 1016.7
20260901125045 13 62 0.0 0.0 0.00 0.00 0.00 79 1016.9
20260901124544 13 62 0.0 0.0 0.00 0.00 0.00 79 1016.8
20260901124039 12 62 0.0 0.0 0.00 0.00 0.00 80 1016.7
20260901123534 12 50 0.0 0.0 0.00 0.00 0.00 80 1016.8
20260901123033 12 22 0.0 0.0 0.00 0.00 0.00 80 1016.6
20260901122532 12 49 0.0 0.0 0.00 0.00 0.00 81 1016.6
20260901122026 12 29 1.6 1.6 0.00 0.00 0.00 80 1016.4
20260901121521 11 22 3.2 3.2 0.00 0.00 0.00 81 1016.7
20260901121016 11 66 0.0 0.0 0.00 0.00 0.00 81 1016.6
20260901120516 12 48 0.0 0.0 0.00 0.00 0.00 80 1016.6
20260901120012 12 11 3.2 3.2 0.00 0.00 0.00 80 1016.6
20260901115506 12 10 1.6 1.6 0.00 0.00 0.00 80 1016.4
20260901115004 11 22 0.0 0.0 0.00 0.00 0.00 81 1016.3
20260901114459 11 22 0.0 0.0 0.00 0.00 0.00 81 1016.3
20260901113956 11 42 0.0 0.0 0.00 0.00 0.00 82 1016.3
20260901113456 11 62 0.0 0.0 0.00 0.00 0.00 82 1016.4
20260901112951 11 56 0.0 0.0 0.00 0.00 0.00 83 1016.3
20260901112447 11 67 0.0 0.0 0.00 0.00 0.00 85 1016.3
20260901111942 10 82 0.0 0.0 0.00 0.00 0.00 85 1016.2
20260901111440 10 82 0.0 0.0 0.00 0.00 0.00 84 1016.1
20260901110938 11 83 0.0 0.0 0.00 0.00 0.00 83 1016.2
20260901110434 11 58 0.0 0.0 0.00 0.00 0.00 83 1016.0
20260901105930 11 57 0.0 0.0 0.00 0.00 0.00 83 1016.1
20260901105426 11 53 0.0 0.0 0.00 0.00 0.00 84 1016.0
20260901104921 11 70 0.0 0.0 0.00 0.00 0.00 84 1016.2
20260901104416 11 85 0.0 0.0 0.00 0.00 0.00 83 1016.2
20260901103912 11 82 0.0 1.6 0.00 0.00 0.00 81 1016.1
20260901103411 12 112 1.6 1.6 0.00 0.00 0.00 79 1016.0
20260901102907 12 57 0.0 1.6 0.00 0.00 0.00 78 1016.0
20260901102401 12 31 0.0 1.6 0.00 0.00 0.00 79 1016.0
20260901101856 11 68 0.0 0.0 0.00 0.00 0.00 80 1016.0
20260901101350 11 70 0.0 0.0 0.00 0.00 0.00 80 1016.0
20260901100850 12 70 0.0 0.0 0.00 0.00 0.00 79 1015.8
20260901100345 12 68 0.0 0.0 0.00 0.00 0.00 77 1015.8
20260901095838 13 53 0.0 0.0 0.00 0.00 0.00 76 1015.9
20260901095330 12 62 0.0 0.0 0.00 0.00 0.00 78 1016.0
20260901094824 12 73 0.0 0.0 0.00 0.00 0.00 77 1015.8
20260901094319 12 73 0.0 0.0 0.00 0.00 0.00 77 1015.8
20260901093815 12 73 0.0 0.0 0.00 0.00 0.00 77 1016.1
20260901093313 12 69 0.0 0.0 0.00 0.00 0.00 78 1016.0
20260901092810 12 74 0.0 0.0 0.00 0.00 0.00 79 1015.9
20260901092306 12 73 0.0 0.0 0.00 0.00 0.00 79 1016.0
20260901091801 12 90 0.0 0.0 0.00 0.00 0.00 79 1015.8
20260901091255 12 76 0.0 0.0 0.00 0.00 0.00 78 1015.7
20260901090750 12 51 1.6 1.6 0.00 0.00 0.00 78 1015.6
20260901090245 12 333 0.0 0.0 0.00 0.00 0.00 77 1015.8
20260901085741 12 332 1.6 1.6 0.00 0.00 0.00 76 1015.6
20260901085236 12 309 1.6 1.6 0.00 0.00 0.00 76 1015.7
20260901084732 13 301 1.6 1.6 0.00 0.00 0.00 75 1015.7
20260901084229 13 271 1.6 3.2 0.00 0.00 0.00 75 1015.5
20260901083728 12 143 1.6 1.6 0.00 0.00 0.00 76 1015.7
20260901083227 12 130 0.0 1.6 0.00 0.00 0.00 78 1015.4
20260901082726 12 102 0.0 0.0 0.00 0.00 0.00 78 1015.5
20260901082222 12 102 0.0 0.0 0.00 0.00 0.00 78 1015.5
20260901081718 12 153 3.2 3.2 0.00 0.00 0.00 77 1015.6
20260901081217 13 149 1.6 1.6 0.00 0.00 0.00 75 1015.3
20260901080712 13 87 1.6 1.6 0.00 0.00 0.00 73 1015.5
20260901080211 14 39 1.6 1.6 0.00 0.00 0.00 70 1015.6
20260901075712 15 31 1.6 1.6 0.00 0.00 0.00 69 1015.6
20260901075211 15 12 4.8 4.8 0.00 0.00 0.00 68 1015.4
20260901074706 15 26 4.8 4.8 0.00 0.00 0.00 68 1015.5
20260901074202 15 26 1.6 1.6 0.00 0.00 0.00 67 1015.6
20260901073658 16 353 3.2 3.2 0.00 0.00 0.00 65 1015.6
20260901073153 15 38 0.0 0.0 0.00 0.00 0.00 66 1015.6
20260901072648 15 64 0.0 0.0 0.00 0.00 0.00 68 1015.9
20260901072143 14 64 0.0 0.0 0.00 0.00 0.00 70 1015.7
20260901071642 13 64 0.0 0.0 0.00 0.00 0.00 71 1015.7
20260901071136 13 64 0.0 0.0 0.00 0.00 0.00 72 1015.7
20260901070630 13 65 0.0 0.0 0.00 0.00 0.00 74 1015.6
20260901070126 14 66 0.0 0.0 0.00 0.00 0.00 73 1015.9
20260901065615 13 63 0.0 0.0 0.00 0.00 0.00 72 1015.5
20260901065114 14 65 0.0 0.0 0.00 0.00 0.00 72 1015.6
20260901064612 16 56 0.0 0.0 0.00 0.00 0.00 66 1015.8
20260901064108 16 27 0.0 0.0 0.00 0.00 0.00 65 1015.7
20260901063604 16 4 0.0 0.0 0.00 0.00 0.00 65 1015.5
20260901063100 15 72 0.0 0.0 0.00 0.00 0.00 68 1015.7
20260901062550 15 73 0.0 0.0 0.00 0.00 0.00 68 1015.5
20260901062046 15 73 0.0 0.0 0.00 0.00 0.00 69 1015.5
20260901061543 14 74 0.0 0.0 0.00 0.00 0.00 70 1015.4
20260901061042 14 72 0.0 0.0 0.00 0.00 0.00 70 1015.6
20260901060537 13 82 0.0 0.0 0.00 0.00 0.00 72 1015.6
20260901060032 13 99 0.0 0.0 0.00 0.00 0.00 73 1015.6
20260901055528 13 99 0.0 0.0 0.00 0.00 0.00 73 1015.3
20260901055024 14 99 0.0 0.0 0.00 0.00 0.00 71 1015.6
20260901054521 15 95 0.0 0.0 0.00 0.00 0.00 69 1015.5
20260901054017 15 98 0.0 0.0 0.00 0.00 0.00 70 1015.5
20260901053512 15 110 0.0 0.0 0.00 0.00 0.00 70 1015.4
20260901053009 15 82 0.0 0.0 0.00 0.00 0.00 70 1015.3
20260901052503 14 93 0.0 0.0 0.00 0.00 0.00 71 1015.1
20260901052002 14 86 0.0 0.0 0.00 0.00 0.00 71 1015.3
20260901051453 15 121 0.0 0.0 0.00 0.00 0.00 70 1015.3
20260901050951 16 65 0.0 0.0 0.00 0.00 0.00 65 1015.4
20260901050446 16 51 0.0 0.0 0.00 0.00 0.00 64 1015.1
20260901045941 15 47 0.0 0.0 0.00 0.00 0.00 69 1015.3
20260901045436 15 60 0.0 1.6 0.00 0.00 0.00 66 1015.3
20260901044931 16 127 0.0 0.0 0.00 0.00 0.00 67 1015.2
20260901044427 17 47 0.0 0.0 0.00 0.00 0.00 60 1015.2
20260901043922 17 50 0.0 0.0 0.00 0.00 0.00 61 1015.0
20260901043418 16 39 0.0 0.0 0.00 0.00 0.00 62 1014.9
20260901042913 16 77 0.0 0.0 0.00 0.00 0.00 65 1015.0
20260901042412 15 76 0.0 0.0 0.00 0.00 0.00 66 1015.4
20260901041908 15 100 0.0 0.0 0.00 0.00 0.00 68 1015.1
20260901041403 16 104 0.0 0.0 0.00 0.00 0.00 66 1014.8
20260901040903 17 114 0.0 0.0 0.00 0.00 0.00 62 1014.8
20260901040402 17 28 0.0 0.0 0.00 0.00 0.00 60 1014.5
20260901035901 16 42 0.0 0.0 0.00 0.00 0.00 62 1014.6
20260901035400 16 72 0.0 0.0 0.00 0.00 0.00 63 1014.1
20260901034858 16 71 0.0 0.0 0.00 0.00 0.00 63 1014.3
20260901034354 17 71 0.0 0.0 0.00 0.00 0.00 61 1014.2
20260901033849 17 56 0.0 0.0 0.00 0.00 0.00 59 1014.1
20260901033348 18 43 0.0 0.0 0.00 0.00 0.00 57 1014.3
20260901032847 18 347 1.6 1.6 0.00 0.00 0.00 57 1014.1
20260901032346 18 2 1.6 1.6 0.00 0.00 0.00 58 1014.4
20260901031842 18 313 3.2 3.2 0.00 0.00 0.00 58 1014.2
20260901031337 18 15 0.0 0.0 0.00 0.00 0.00 58 1014.2
20260901030836 17 152 0.0 0.0 0.00 0.00 0.00 59 1014.2
20260901030332 18 125 0.0 0.0 0.00 0.00 0.00 59 1014.2
20260901025831 18 178 1.6 1.6 0.00 0.00 0.00 58 1014.3
20260901025326 18 177 0.0 1.6 0.00 0.00 0.00 58 1014.0
20260901024821 18 175 1.6 3.2 0.00 0.00 0.00 57 1014.0
20260901024320 18 173 1.6 1.6 0.00 0.00 0.00 57 1014.1
20260901023818 19 202 3.2 3.2 0.00 0.00 0.00 56 1013.8
20260901023313 19 191 1.6 1.6 0.00 0.00 0.00 55 1013.8
20260901022809 19 197 1.6 1.6 0.00 0.00 0.00 55 1013.5
20260901022306 20 215 1.6 3.2 0.00 0.00 0.00 55 1013.6
20260901021800 20 205 4.8 4.8 0.00 0.00 0.00 54 1013.6
20260901021256 20 182 1.6 3.2 0.00 0.00 0.00 54 1013.5
20260901020750 20 213 4.8 4.8 0.00 0.00 0.00 54 1013.4
20260901020245 20 230 4.8 4.8 0.00 0.00 0.00 53 1013.4
20260901015740 20 233 4.8 4.8 0.00 0.00 0.00 52 1013.4
20260901015237 21 220 1.6 1.6 0.00 0.00 0.00 52 1013.1
20260901014736 21 189 1.6 1.6 0.00 0.00 0.00 51 1013.1
20260901014232 21 222 4.8 4.8 0.00 0.00 0.00 50 1013.1
20260901013727 21 223 8.0 9.7 0.00 0.00 0.00 49 1013.0
20260901013223 22 176 3.2 3.2 0.00 0.00 0.00 49 1013.0
20260901012719 22 264 8.0 11.3 0.00 0.00 0.00 48 1012.9
20260901012219 22 273 4.8 4.8 0.00 0.00 0.00 48 1013.1
20260901011715 22 272 8.0 9.7 0.00 0.00 0.00 48 1013.0
20260901011214 22 285 4.8 4.8 0.00 0.00 0.00 48 1012.9
20260901010708 23 281 8.0 9.7 0.00 0.00 0.00 47 1012.9
20260901010203 23 256 4.8 4.8 0.00 0.00 0.00 47 1012.6
20260901005702 23 226 3.2 3.2 0.00 0.00 0.00 46 1012.9
20260901005158 24 242 3.2 3.2 0.00 0.00 0.00 45 1012.7
20260901004657 24 258 6.4 8.0 0.00 0.00 0.00 44 1012.6
20260901004151 25 221 9.7 11.3 0.00 0.00 0.00 44 1012.4
20260901003646 25 220 11.3 14.5 0.00 0.00 0.00 43 1012.5
20260901003145 25 230 4.8 8.0 0.00 0.00 0.00 43 1012.6
20260901002640 25 246 8.0 11.3 0.00 0.00 0.00 42 1012.6
20260901002134 25 190 8.0 11.3 0.00 0.00 0.00 42 1012.4
20260901001630 25 246 9.7 14.5 0.00 0.00 0.00 42 1012.4
20260901001125 26 233 14.5 20.9 0.00 0.00 0.00 41 1012.2
20260901000620 26 253 8.0 9.7 0.00 0.00 0.00 42 1012.3
20260901000115 26 232 11.3 14.5 0.00 0.00 0.00 41 1012.3
20260831235609 26 285 9.7 11.3 0.00 0.00 0.00 40 1012.4
20260831235104 26 290 14.5 17.7 0.00 0.00 0.00 40 1012.3
20260831234604 26 264 12.9 16.1 0.00 0.00 0.00 40 1012.4
20260831234100 26 221 6.4 9.7 0.00 0.00 0.00 41 1012.2
20260831233555 26 220 11.3 12.9 0.00 0.00 0.00 40 1012.4
20260831233050 26 187 9.7 12.9 0.00 0.00 0.00 40 1012.5
20260831232545 26 285 9.7 12.9 0.00 0.00 0.00 39 1012.4
20260831232041 26 221 8.0 14.5 0.00 0.00 0.00 40 1012.2
20260831231537 26 269 11.3 14.5 0.00 0.00 0.00 39 1012.2
20260831231033 27 258 16.1 20.9 0.00 0.00 0.00 39 1012.2
20260831230528 26 236 24.1 33.8 0.00 0.00 0.00 38 1012.3
20260831230023 26 242 14.5 17.7 0.00 0.00 0.00 38 1012.0
20260831225520 27 224 9.7 9.7 0.00 0.00 0.00 39 1012.1
20260831225018 27 262 16.1 24.1 0.00 0.00 0.00 38 1011.9
20260831224514 27 227 19.3 24.1 0.00 0.00 0.00 37 1012.1
20260831224009 27 223 17.7 25.7 0.00 0.00 0.00 37 1012.0
20260831223504 27 211 14.5 20.9 0.00 0.00 0.00 38 1012.0
20260831223000 27 234 14.5 17.7 0.00 0.00 0.00 37 1011.8
20260831222456 27 259 11.3 14.5 0.00 0.00 0.00 37 1011.8
20260831221955 27 251 8.0 11.3 0.00 0.00 0.00 37 1012.0
20260831221451 27 220 14.5 20.9 0.00 0.00 0.00 37 1012.1
20260831220946 27 243 20.9 25.7 0.00 0.00 0.00 36 1011.9
20260831220442 27 249 14.5 20.9 0.00 0.00 0.00 37 1012.0
20260831215936 27 277 24.1 32.2 0.00 0.00 0.00 36 1012.1
20260831215432 27 218 16.1 20.9 0.00 0.00 0.00 36 1012.0
20260831214929 27 198 16.1 20.9 0.00 0.00 0.00 36 1011.9
20260831214426 27 235 22.5 29.0 0.00 0.00 0.00 35 1011.9
20260831213921 27 242 19.3 24.1 0.00 0.00 0.00 36 1011.9
20260831213418 27 219 16.1 17.7 0.00 0.00 0.00 36 1011.9
20260831212917 27 249 22.5 25.7 0.00 0.00 0.00 35 1012.1
20260831212414 27 210 22.5 27.4 0.00 0.00 0.00 35 1012.1
20260831211913 27 240 17.7 24.1 0.00 0.00 0.00 35 1011.9
20260831211408 27 242 20.9 25.7 0.00 0.00 0.00 35 1012.0
20260831210902 26 225 17.7 22.5 0.00 0.00 0.00 35 1012.3
20260831210358 26 282 22.5 29.0 0.00 0.00 0.00 35 1012.1
20260831205853 27 234 16.1 22.5 0.00 0.00 0.00 35 1012.1
20260831205349 26 228 20.9 27.4 0.00 0.00 0.00 36 1012.3
20260831204844 26 284 19.3 25.7 0.00 0.00 0.00 36 1012.4
20260831204343 26 260 24.1 32.2 0.00 0.00 0.00 36 1012.1
20260831203842 27 237 17.7 24.1 0.00 0.00 0.00 36 1012.3
20260831203337 26 259 20.9 22.5 0.00 0.00 0.00 35 1012.2
20260831202835 26 248 25.7 29.0 0.00 0.00 0.00 35 1012.3
20260831202330 26 261 12.9 16.1 0.00 0.00 0.00 37 1012.7
20260831201824 26 252 29.0 35.4 0.00 0.00 0.00 35 1012.6
20260831201323 26 222 16.1 20.9 0.00 0.00 0.00 37 1012.5
20260831200819 26 256 17.7 20.9 0.00 0.00 0.00 37 1012.3
20260831200314 26 215 12.9 14.5 0.00 0.00 0.00 38 1012.4
20260831195809 26 218 16.1 22.5 0.00 0.00 0.00 38 1012.3
20260831195306 26 257 16.1 20.9 0.00 0.00 0.00 38 1012.5
20260831194754 25 270 19.3 22.5 0.00 0.00 0.00 38 1012.4
20260831194249 25 256 22.5 27.4 0.00 0.00 0.00 38 1012.4
20260831193743 25 219 27.4 43.5 0.00 0.00 0.00 39 1012.4
20260831193239 26 258 16.1 17.7 0.00 0.00 0.00 38 1012.5
20260831192733 26 218 22.5 27.4 0.00 0.00 0.00 39 1012.6
20260831192229 25 239 19.3 24.1 0.00 0.00 0.00 39 1012.7
20260831191725 25 231 19.3 24.1 0.00 0.00 0.00 40 1012.6
20260831191221 25 237 22.5 27.4 0.00 0.00 0.00 38 1012.9
20260831190716 25 231 24.1 32.2 0.00 0.00 0.00 40 1012.7
20260831190215 25 246 24.1 32.2 0.00 0.00 0.00 40 1012.6
20260831185710 25 239 25.7 32.2 0.00 0.00 0.00 40 1012.9
20260831185206 25 239 24.1 32.2 0.00 0.00 0.00 40 1013.2
20260831184705 25 224 24.1 27.4 0.00 0.00 0.00 40 1013.0
20260831184201 25 252 19.3 24.1 0.00 0.00 0.00 42 1013.2
20260831183700 25 214 22.5 24.1 0.00 0.00 0.00 43 1013.2
20260831183200 25 242 22.5 32.2 0.00 0.00 0.00 42 1013.2
20260831182659 24 206 19.3 22.5 0.00 0.00 0.00 44 1013.1
20260831182155 23 223 16.1 17.7 0.00 0.00 0.00 44 1013.3
20260831181650 24 228 19.3 24.1 0.00 0.00 0.00 44 1013.2
20260831181149 24 232 22.5 29.0 0.00 0.00 0.00 44 1013.4
20260831180644 23 247 16.1 20.9 0.00 0.00 0.00 47 1013.3
20260831180139 23 222 17.7 25.7 0.00 0.00 0.00 45 1013.4
20260831175634 23 212 19.3 25.7 0.00 0.00 0.00 46 1013.6
20260831175131 23 246 20.9 25.7 0.00 0.00 0.00 45 1013.6
20260831174625 23 231 24.1 32.2 0.00 0.00 0.00 45 1013.4
20260831174120 23 218 17.7 20.9 0.00 0.00 0.00 47 1013.6